Location: Stilling
(56.0622°N, 9.9882°E)
Time: 13:15:39
(UTC+00:00)

Terra - Pass Details

Date: 13 July 2020
Orbit: 701 x 703 km, 98.2° (Epoch: 07 August)

Event Time Altitude Azimuth Distance (km) Brightness Sun altitude
Exits shadow 23:00:12 - 229° (SW) 3,036 4.8 -12.1°
Reaches altitude 10° 23:04:25 10° 266° (W) 2,178 4.4 -12.2°
Maximum altitude 23:05:26 11° 279° (W) 2,137 4.5 -12.2°
Drops below altitude 10° 23:06:28 10° 292° (WNW) 2,181 4.7 -12.2°
Sets 23:10:54 0° 331° (NNW) 3,107 6.4 -12.2°
